MVD6407 URMM-USRO

Flight info

Callsign MVD6407
Flight time 3h 55m
Altitude 33000
Route N0460F330 LARIN G481 NIRGA R807 UROBO P135 ANATU L992 NAMOL T376 UTORA A925 HMN R124 ATBAR G486 ATLON
Aircraft T204/M-Q/L

Departure

Time 2026-04-14 06:01
Airport Mineralnye Vody Airport (URMM)

Arrival

Time 2026-04-14 09:56
Airport Noyabrsk Airport (USRO)
Time Latitude Longitude Altitude Speed Heading
2026-04-14 05:46 44.21881 43.08745 1052 ft 0 kts 212°
2026-04-14 05:52 44.21881 43.08746 1053 ft 1 kts 212°
2026-04-14 05:52 44.21893 43.08756 1053 ft 2 kts 211°
2026-04-14 05:53 44.21906 43.08767 1053 ft 2 kts 211°
2026-04-14 05:53 44.21919 43.08778 1053 ft 2 kts 211°
2026-04-14 05:53 44.21931 43.08790 1053 ft 2 kts 220°
2026-04-14 05:53 44.21941 43.08805 1053 ft 2 kts 239°
2026-04-14 05:54 44.21946 43.08825 1053 ft 2 kts 252°
2026-04-14 05:54 44.21953 43.08843 1053 ft 2 kts 235°
2026-04-14 05:54 44.21962 43.08859 1053 ft 2 kts 224°
2026-04-14 05:54 44.21974 43.08872 1053 ft 2 kts 213°
2026-04-14 05:55 44.21986 43.08881 1053 ft 0 kts 210°
2026-04-14 05:55 44.21986 43.08882 1053 ft 0 kts 211°
2026-04-14 05:56 44.21970 43.08868 1053 ft 7 kts 209°
2026-04-14 05:57 44.21916 43.08880 1052 ft 9 kts 139°
2026-04-14 05:57 44.21870 43.08969 1052 ft 13 kts 122°
2026-04-14 05:57 44.21812 43.09086 1053 ft 16 kts 127°
2026-04-14 05:57 44.21744 43.09231 1052 ft 19 kts 122°
2026-04-14 05:58 44.21653 43.09392 1052 ft 22 kts 124°
2026-04-14 05:58 44.21564 43.09588 1052 ft 23 kts 121°
2026-04-14 05:58 44.21512 43.09783 1052 ft 20 kts 83°
2026-04-14 05:58 44.21542 43.09962 1052 ft 17 kts 76°
2026-04-14 05:59 44.21566 43.10112 1052 ft 14 kts 78°
2026-04-14 05:59 44.21604 43.10223 1053 ft 11 kts 41°
2026-04-14 05:59 44.21661 43.10273 1052 ft 8 kts 33°
2026-04-14 05:59 44.21699 43.10307 1052 ft 5 kts 32°
2026-04-14 06:00 44.21724 43.10324 1053 ft 2 kts
2026-04-14 06:00 44.21733 43.10325 1053 ft 0 kts 356°
2026-04-14 06:00 44.21744 43.10322 1053 ft 5 kts 344°
2026-04-14 06:00 44.21799 43.10247 1053 ft 17 kts 303°
2026-04-14 06:01 44.21967 43.09871 1053 ft 84 kts 302°
2026-04-14 06:01 44.22420 43.08885 1081 ft 152 kts 300°
2026-04-14 06:01 44.23037 43.07547 1677 ft 175 kts 300°
2026-04-14 06:01 44.23735 43.06050 2221 ft 195 kts 300°
2026-04-14 06:02 44.24521 43.04330 2467 ft 225 kts 300°
2026-04-14 06:02 44.25353 43.02475 3343 ft 228 kts 301°
2026-04-14 06:02 44.26169 43.00635 4260 ft 228 kts 301°
2026-04-14 06:02 44.27009 42.98770 5136 ft 230 kts 301°
2026-04-14 06:03 44.27850 42.96900 5998 ft 231 kts 300°
2026-04-14 06:03 44.28693 42.95015 6801 ft 234 kts 300°
2026-04-14 06:03 44.29557 42.93072 7521 ft 240 kts 300°
2026-04-14 06:04 44.32465 42.91097 8896 ft 266 kts
2026-04-14 06:04 44.34265 42.91670 9706 ft 268 kts 11°
2026-04-14 06:04 44.36047 42.92338 10393 ft 272 kts 12°
2026-04-14 06:04 44.37888 42.93053 11045 ft 278 kts 12°
2026-04-14 06:05 44.39793 42.93798 11433 ft 293 kts 12°
2026-04-14 06:05 44.41810 42.94592 11786 ft 309 kts 13°
2026-04-14 06:05 44.43912 42.95421 12282 ft 318 kts 13°
2026-04-14 06:05 44.46027 42.96261 12940 ft 322 kts 13°
2026-04-14 06:06 44.48188 42.97118 13560 ft 326 kts 13°
2026-04-14 06:06 44.50378 42.97989 14184 ft 330 kts 14°
2026-04-14 06:06 44.52605 42.98877 14768 ft 335 kts 14°
2026-04-14 06:06 44.54869 42.99780 15343 ft 340 kts 14°
2026-04-14 06:07 44.57127 43.00685 15912 ft 344 kts 15°
2026-04-14 06:07 44.59429 43.01625 16488 ft 347 kts 17°
2026-04-14 06:07 44.61630 43.03061 17043 ft 352 kts 30°
2026-04-14 06:07 44.63747 43.04780 17637 ft 354 kts 31°
2026-04-14 06:08 44.65875 43.06541 18153 ft 358 kts 31°
2026-04-14 06:08 44.68013 43.08313 18668 ft 362 kts 31°
2026-04-14 06:08 44.70211 43.10126 19212 ft 365 kts 31°
2026-04-14 06:08 44.72378 43.11915 19717 ft 368 kts 31°
2026-04-14 06:09 44.74604 43.13749 20196 ft 373 kts 31°
2026-04-14 06:09 44.76845 43.15585 20737 ft 374 kts 31°
2026-04-14 06:09 44.79098 43.17428 21246 ft 377 kts 31°
2026-04-14 06:09 44.81365 43.19282 21722 ft 380 kts 31°
2026-04-14 06:10 44.83653 43.21152 22226 ft 383 kts 31°
2026-04-14 06:10 44.85956 43.23034 22701 ft 385 kts 31°
2026-04-14 06:10 44.88271 43.24922 23160 ft 388 kts 31°
2026-04-14 06:10 44.90620 43.26839 23589 ft 392 kts 32°
2026-04-14 06:11 44.92995 43.28782 24038 ft 395 kts 32°
2026-04-14 06:11 44.95361 43.30717 24477 ft 398 kts 32°
2026-04-14 06:11 44.97757 43.32674 24856 ft 401 kts 31°
2026-04-14 06:11 45.00177 43.34663 25329 ft 402 kts 32°
2026-04-14 06:12 45.02593 43.36661 25711 ft 405 kts 32°
2026-04-14 06:12 45.05001 43.38649 26097 ft 406 kts 31°
2026-04-14 06:12 45.07468 43.40626 26547 ft 407 kts 26°
2026-04-14 06:12 45.10169 43.41882 26868 ft 411 kts 13°
2026-04-14 06:13 45.12962 43.42741 27244 ft 411 kts 12°
2026-04-14 06:13 45.15751 43.43526 27585 ft 413 kts 11°
2026-04-14 06:13 45.18594 43.44309 27903 ft 415 kts 11°
2026-04-14 06:13 45.21415 43.45083 28199 ft 417 kts 11°
2026-04-14 06:14 45.24249 43.45864 28525 ft 418 kts 11°
2026-04-14 06:14 45.27129 43.46661 28802 ft 420 kts 11°
2026-04-14 06:14 45.29969 43.47446 29065 ft 421 kts 11°
2026-04-14 06:14 45.32871 43.48247 29320 ft 423 kts 11°
2026-04-14 06:15 45.35740 43.49038 29566 ft 424 kts 11°
2026-04-14 06:15 45.38620 43.49834 29808 ft 425 kts 11°
2026-04-14 06:15 45.41532 43.50637 30050 ft 426 kts 11°
2026-04-14 06:15 45.44443 43.51441 30286 ft 427 kts 11°
2026-04-14 06:16 45.47364 43.52247 30484 ft 429 kts 11°
2026-04-14 06:16 45.50282 43.53053 30672 ft 431 kts 12°
2026-04-14 06:16 45.53223 43.53876 30846 ft 433 kts 12°
2026-04-14 06:16 45.56191 43.54712 31009 ft 434 kts 12°
2026-04-14 06:17 45.59156 43.55550 31156 ft 435 kts 12°
2026-04-14 06:17 45.62114 43.56386 31285 ft 437 kts 12°
2026-04-14 06:17 45.65118 43.57236 31435 ft 438 kts 12°
2026-04-14 06:17 45.68087 43.58075 31571 ft 439 kts 12°
2026-04-14 06:18 45.71071 43.58917 31672 ft 441 kts 11°
2026-04-14 06:18 45.74064 43.59764 31792 ft 442 kts 11°
2026-04-14 06:18 45.77079 43.60616 31921 ft 442 kts 11°
2026-04-14 06:18 45.80086 43.61465 32027 ft 443 kts 11°
2026-04-14 06:19 45.83116 43.62320 32126 ft 444 kts 11°
2026-04-14 06:19 45.89217 43.64029 32290 ft 448 kts 11°
2026-04-14 06:19 45.92255 43.64883 32409 ft 448 kts 11°
2026-04-14 06:20 45.95316 43.65747 32567 ft 447 kts 12°
2026-04-14 06:20 45.98347 43.66601 32689 ft 447 kts 12°
2026-04-14 06:20 46.01404 43.67474 32805 ft 447 kts 13°
2026-04-14 06:20 46.04424 43.68479 32912 ft 447 kts 14°
2026-04-14 06:21 46.07449 43.69511 33036 ft 449 kts 14°
2026-04-14 06:21 46.13523 43.71577 33067 ft 451 kts 14°
2026-04-14 06:22 46.19591 43.73623 33059 ft 447 kts 14°
2026-04-14 06:22 46.25646 43.75649 33065 ft 447 kts 14°
2026-04-14 06:23 46.31708 43.77687 33064 ft 447 kts 14°
2026-04-14 06:23 46.37727 43.79713 33060 ft 448 kts 14°
2026-04-14 06:24 46.43787 43.81754 33052 ft 448 kts 14°
2026-04-14 06:24 46.49865 43.83795 33057 ft 448 kts 14°
2026-04-14 06:25 46.55920 43.85848 33047 ft 449 kts 14°
2026-04-14 06:25 46.61969 43.87924 33047 ft 449 kts 14°
2026-04-14 06:26 46.68031 43.89999 33040 ft 450 kts 14°
2026-04-14 06:26 46.74098 43.92086 33037 ft 449 kts 14°
2026-04-14 06:27 46.80186 43.94177 33036 ft 449 kts 14°
2026-04-14 06:27 46.86277 43.96264 33038 ft 450 kts 14°
2026-04-14 06:28 46.92373 43.98354 33027 ft 450 kts 14°
2026-04-14 06:28 46.98421 44.00422 33023 ft 450 kts 14°
2026-04-14 06:29 47.04498 44.02537 33018 ft 450 kts 15°
2026-04-14 06:29 47.10584 44.04699 33007 ft 450 kts 15°
2026-04-14 06:30 47.16678 44.06868 33005 ft 451 kts 15°
2026-04-14 06:30 47.22765 44.09032 33004 ft 452 kts 15°
2026-04-14 06:31 47.28875 44.11204 33002 ft 452 kts 15°
2026-04-14 06:31 47.34961 44.13363 32988 ft 451 kts 15°
2026-04-14 06:32 47.41027 44.15525 32990 ft 451 kts 15°
2026-04-14 06:32 47.47138 44.17702 32976 ft 451 kts 15°
2026-04-14 06:33 47.53218 44.19868 32984 ft 451 kts 15°
2026-04-14 06:33 47.59324 44.22039 32983 ft 452 kts 15°
2026-04-14 06:34 47.68470 44.25288 32973 ft 453 kts 15°
2026-04-14 06:34 47.74573 44.27460 32959 ft 452 kts 15°
2026-04-14 06:35 47.80669 44.29629 32957 ft 452 kts 15°
2026-04-14 06:35 47.86775 44.31803 32944 ft 452 kts 15°
2026-04-14 06:36 47.92875 44.33971 32941 ft 452 kts 16°
2026-04-14 06:36 47.98827 44.36745 32952 ft 450 kts 21°
2026-04-14 06:37 48.04797 44.39686 32940 ft 451 kts 20°
2026-04-14 06:37 48.10723 44.42584 32931 ft 451 kts 20°
2026-04-14 06:38 48.16685 44.45495 32933 ft 451 kts 20°
2026-04-14 06:38 48.22644 44.48396 32932 ft 452 kts 20°
2026-04-14 06:39 48.28610 44.51290 32921 ft 452 kts 20°
2026-04-14 06:39 48.34571 44.54188 32908 ft 451 kts 21°
2026-04-14 06:40 48.40528 44.57080 32900 ft 452 kts 21°
2026-04-14 06:40 48.46497 44.59985 32896 ft 453 kts 21°
2026-04-14 06:41 48.52480 44.62900 32889 ft 452 kts 21°
2026-04-14 06:41 48.58433 44.65839 32902 ft 453 kts 22°
2026-04-14 06:42 48.64410 44.68779 32888 ft 452 kts 22°
2026-04-14 06:42 48.70375 44.71749 32891 ft 453 kts 22°
2026-04-14 06:43 48.76327 44.74726 32895 ft 452 kts 22°
2026-04-14 06:43 48.82322 44.77716 32888 ft 452 kts 22°
2026-04-14 06:44 48.88335 44.80408 32893 ft 456 kts 19°
2026-04-14 06:44 48.94433 44.82957 32876 ft 456 kts 20°
2026-04-14 06:45 49.00541 44.85551 32881 ft 455 kts 20°
2026-04-14 06:45 49.06609 44.88139 32854 ft 455 kts 20°
2026-04-14 06:46 49.15729 44.92028 32866 ft 456 kts 20°
2026-04-14 06:47 49.21806 44.94617 32865 ft 456 kts 20°
2026-04-14 06:47 49.27925 44.97225 32863 ft 455 kts 20°
2026-04-14 06:48 49.34016 44.99828 32860 ft 456 kts 20°
2026-04-14 06:48 49.40127 45.02433 32854 ft 457 kts 20°
2026-04-14 06:49 49.46232 45.05047 32847 ft 457 kts 20°
2026-04-14 06:49 49.52338 45.07646 32847 ft 457 kts 20°
2026-04-14 06:50 49.58474 45.10257 32849 ft 459 kts 20°
2026-04-14 06:50 49.64571 45.12865 32855 ft 458 kts 20°
2026-04-14 06:51 49.70687 45.15498 32849 ft 456 kts 21°
2026-04-14 06:51 49.76796 45.18185 32843 ft 458 kts 21°
2026-04-14 06:52 49.82899 45.20875 32845 ft 459 kts 21°
2026-04-14 06:52 49.89038 45.23582 32839 ft 458 kts 21°
2026-04-14 06:53 49.95110 45.26239 32825 ft 455 kts 21°
2026-04-14 06:53 50.01219 45.28933 32837 ft 457 kts 21°
2026-04-14 06:54 50.07436 45.31172 32841 ft 461 kts 18°
2026-04-14 06:54 50.13701 45.33278 32822 ft 462 kts 17°
2026-04-14 06:55 50.19980 45.35425 32831 ft 463 kts 18°
2026-04-14 06:55 50.26245 45.37580 32831 ft 463 kts 18°
2026-04-14 06:56 50.32501 45.39736 32837 ft 465 kts 17°
2026-04-14 06:56 50.38829 45.41915 32835 ft 465 kts 18°
2026-04-14 06:57 50.45080 45.44070 32826 ft 464 kts 18°
2026-04-14 06:57 50.51393 45.46242 32852 ft 465 kts 18°
2026-04-14 06:58 50.57709 45.48423 32827 ft 466 kts 18°
2026-04-14 06:58 50.63962 45.50567 32829 ft 465 kts 18°
2026-04-14 06:59 50.70294 45.52757 32839 ft 465 kts 17°
2026-04-14 06:59 50.76597 45.54932 32837 ft 465 kts 18°
2026-04-14 07:00 50.82907 45.57144 32854 ft 464 kts 18°
2026-04-14 07:00 50.89180 45.59419 32849 ft 466 kts 18°
2026-04-14 07:01 50.95493 45.61682 32848 ft 468 kts 18°
2026-04-14 07:01 51.01805 45.63966 32853 ft 466 kts 19°
2026-04-14 07:01 51.04812 45.65685 32832 ft 456 kts 31°
2026-04-14 07:02 51.07665 45.67773 32887 ft 454 kts 32°
2026-04-14 07:02 51.13364 45.72089 32865 ft 454 kts 32°
2026-04-14 07:03 51.19049 45.76410 32893 ft 455 kts 32°
2026-04-14 07:03 51.24760 45.80743 32894 ft 453 kts 32°
2026-04-14 07:04 51.30472 45.85072 32895 ft 455 kts 32°
2026-04-14 07:04 51.36144 45.89357 32897 ft 456 kts 32°
2026-04-14 07:05 51.41865 45.93696 32912 ft 456 kts 32°
2026-04-14 07:05 51.47575 45.98015 32917 ft 457 kts 32°
2026-04-14 07:06 51.53310 46.02351 32912 ft 456 kts 32°
2026-04-14 07:06 51.58496 46.07736 32936 ft 441 kts 47°
2026-04-14 07:07 51.63156 46.14142 32907 ft 442 kts 48°
2026-04-14 07:07 51.67773 46.20597 32931 ft 443 kts 48°
2026-04-14 07:07 51.70102 46.23849 33049 ft 445 kts 48°
2026-04-14 07:08 51.72425 46.27091 33340 ft 442 kts 47°
2026-04-14 07:08 51.74723 46.30308 33491 ft 443 kts 47°
2026-04-14 07:08 51.77045 46.33554 33680 ft 443 kts 47°
2026-04-14 07:08 51.79374 46.36788 33951 ft 441 kts 47°
2026-04-14 07:09 51.81609 46.40100 34088 ft 436 kts 54°
2026-04-14 07:09 51.83503 46.43869 34238 ft 432 kts 58°
2026-04-14 07:09 51.85337 46.47676 34473 ft 430 kts 58°
2026-04-14 07:09 51.87163 46.51523 34586 ft 433 kts 59°
2026-04-14 07:10 51.89016 46.55395 34610 ft 437 kts 58°
2026-04-14 07:10 51.90858 46.59242 34869 ft 435 kts 58°
2026-04-14 07:10 51.92717 46.63122 34958 ft 437 kts 58°
2026-04-14 07:11 51.96399 46.70830 34949 ft 434 kts 59°
2026-04-14 07:11 52.00058 46.78546 34961 ft 433 kts 59°
2026-04-14 07:12 52.03711 46.86277 34963 ft 434 kts 59°
2026-04-14 07:12 52.07359 46.93998 34946 ft 433 kts 59°
2026-04-14 07:13 52.11037 47.01761 34948 ft 435 kts 59°
2026-04-14 07:13 52.14731 47.09530 34962 ft 435 kts 59°
2026-04-14 07:14 52.18393 47.17280 34945 ft 432 kts 60°
2026-04-14 07:14 52.22009 47.25070 34957 ft 434 kts 60°
2026-04-14 07:15 52.25636 47.32891 34953 ft 433 kts 59°
2026-04-14 07:15 52.29272 47.40718 34956 ft 435 kts 59°
2026-04-14 07:16 52.32943 47.48591 34965 ft 436 kts 59°
2026-04-14 07:16 52.36561 47.56449 34941 ft 434 kts 59°
2026-04-14 07:17 52.40149 47.64314 34963 ft 434 kts 59°
2026-04-14 07:17 52.43755 47.72229 34970 ft 434 kts 60°
2026-04-14 07:18 52.47345 47.80111 34958 ft 434 kts 60°
2026-04-14 07:18 52.50973 47.88049 34967 ft 436 kts 60°
2026-04-14 07:19 52.54581 47.95945 34982 ft 435 kts 60°
2026-04-14 07:19 52.58211 48.03877 34966 ft 435 kts 59°
2026-04-14 07:20 52.61832 48.11800 34970 ft 436 kts 60°
2026-04-14 07:20 52.65411 48.19820 34969 ft 436 kts 60°
2026-04-14 07:21 52.68973 48.27869 34977 ft 437 kts 60°
2026-04-14 07:21 52.72549 48.35938 34976 ft 436 kts 60°
2026-04-14 07:22 52.76107 48.43959 34980 ft 436 kts 59°
2026-04-14 07:22 52.79674 48.51994 34978 ft 437 kts 59°
2026-04-14 07:23 52.83280 48.60086 34989 ft 438 kts 59°
2026-04-14 07:23 52.86887 48.68187 34990 ft 438 kts 59°
2026-04-14 07:24 52.90480 48.76226 34993 ft 438 kts 59°
2026-04-14 07:24 52.94090 48.84309 34991 ft 438 kts 59°
2026-04-14 07:25 52.97636 48.92432 34994 ft 437 kts 60°
2026-04-14 07:25 53.01187 49.00624 34996 ft 439 kts 60°
2026-04-14 07:26 53.04739 49.08799 34998 ft 440 kts 59°
2026-04-14 07:26 53.08318 49.17031 35001 ft 440 kts 59°
2026-04-14 07:27 53.11860 49.25264 34996 ft 438 kts 60°
2026-04-14 07:27 53.15357 49.33530 35002 ft 438 kts 60°
2026-04-14 07:28 53.18848 49.41822 35004 ft 440 kts 60°
2026-04-14 07:28 53.22351 49.50135 35000 ft 440 kts 59°
2026-04-14 07:29 53.25859 49.58461 35009 ft 441 kts 59°
2026-04-14 07:29 53.29392 49.66811 35012 ft 440 kts 60°
2026-04-14 07:30 53.32903 49.75102 35009 ft 440 kts 59°
2026-04-14 07:30 53.36433 49.83450 35017 ft 441 kts 59°
2026-04-14 07:31 53.39973 49.91774 35007 ft 441 kts 59°
2026-04-14 07:31 53.43536 50.00163 35017 ft 441 kts 59°
2026-04-14 07:32 53.47086 50.08482 35019 ft 442 kts 59°
2026-04-14 07:32 53.50635 50.16817 35028 ft 442 kts 58°
2026-04-14 07:33 53.54143 50.25288 35029 ft 442 kts 60°
2026-04-14 07:33 53.57567 50.33829 35028 ft 442 kts 60°
2026-04-14 07:34 53.64417 50.50988 35035 ft 443 kts 59°
2026-04-14 07:35 53.67837 50.59526 35035 ft 444 kts 59°
2026-04-14 07:35 53.71289 50.68136 35037 ft 443 kts 59°
2026-04-14 07:36 53.74747 50.76745 35038 ft 443 kts 59°
2026-04-14 07:36 53.78199 50.85324 35052 ft 444 kts 59°
2026-04-14 07:37 53.81654 50.93897 35051 ft 445 kts 59°
2026-04-14 07:37 53.85130 51.02507 35057 ft 445 kts 59°
2026-04-14 07:38 53.88622 51.11148 35057 ft 445 kts 58°
2026-04-14 07:38 53.92113 51.19758 35052 ft 445 kts 58°
2026-04-14 07:39 53.95599 51.28359 35052 ft 445 kts 58°
2026-04-14 07:39 53.99089 51.36947 35056 ft 445 kts 58°
2026-04-14 07:40 54.02751 51.45423 35057 ft 446 kts 53°
2026-04-14 07:40 54.06581 51.53639 35058 ft 447 kts 53°
2026-04-14 07:41 54.10427 51.62001 35063 ft 448 kts 53°
2026-04-14 07:41 54.14246 51.70324 35054 ft 447 kts 54°
2026-04-14 07:42 54.18038 51.78607 35063 ft 447 kts 54°
2026-04-14 07:42 54.21876 51.86975 35066 ft 448 kts 54°
2026-04-14 07:43 54.25696 51.95299 35073 ft 447 kts 53°
2026-04-14 07:43 54.29547 52.03664 35077 ft 448 kts 53°
2026-04-14 07:44 54.33386 52.11995 35077 ft 448 kts 53°
2026-04-14 07:44 54.37226 52.20314 35081 ft 449 kts 52°
2026-04-14 07:45 54.41091 52.28675 35086 ft 448 kts 52°
2026-04-14 07:45 54.44931 52.37125 35090 ft 449 kts 53°
2026-04-14 07:46 54.48695 52.45600 35098 ft 449 kts 53°
2026-04-14 07:46 54.52473 52.54103 35094 ft 449 kts 53°
2026-04-14 07:47 54.56251 52.62607 35099 ft 450 kts 52°
2026-04-14 07:47 54.60068 52.71174 35099 ft 450 kts 53°
2026-04-14 07:48 54.63847 52.79692 35102 ft 449 kts 55°
2026-04-14 07:48 54.66949 52.89002 35110 ft 448 kts 62°
2026-04-14 07:49 54.69904 52.98391 35114 ft 449 kts 62°
2026-04-14 07:49 54.72913 53.07880 35107 ft 449 kts 62°
2026-04-14 07:50 54.75906 53.17288 35114 ft 451 kts 61°
2026-04-14 07:50 54.78931 53.26763 35114 ft 451 kts 61°
2026-04-14 07:51 54.81958 53.36223 35113 ft 452 kts 61°
2026-04-14 07:51 54.84936 53.45753 35122 ft 452 kts 61°
2026-04-14 07:52 54.87928 53.55334 35124 ft 452 kts 61°
2026-04-14 07:52 54.90924 53.64899 35131 ft 452 kts 61°
2026-04-14 07:53 54.93883 53.74493 35122 ft 453 kts 62°
2026-04-14 07:53 54.96810 53.84116 35125 ft 455 kts 62°
2026-04-14 07:54 54.99765 53.93838 35117 ft 454 kts 62°
2026-04-14 07:54 55.02708 54.03507 35122 ft 456 kts 62°
2026-04-14 07:55 55.05676 54.13247 35122 ft 456 kts 62°
2026-04-14 07:55 55.08638 54.22942 35129 ft 455 kts 61°
2026-04-14 07:56 55.11607 54.32645 35134 ft 455 kts 61°
2026-04-14 07:56 55.14591 54.42365 35143 ft 456 kts 60°
2026-04-14 07:57 55.17592 54.52098 35143 ft 456 kts 60°
2026-04-14 07:57 55.20537 54.61830 35153 ft 457 kts 61°
2026-04-14 07:58 55.23468 54.71688 35149 ft 457 kts 62°
2026-04-14 07:58 55.26389 54.81505 35155 ft 457 kts 62°
2026-04-14 07:59 55.29312 54.91348 35161 ft 457 kts 62°
2026-04-14 07:59 55.32215 55.01243 35161 ft 458 kts 62°
2026-04-14 08:00 55.35110 55.11130 35162 ft 458 kts 62°
2026-04-14 08:00 55.38034 55.21077 35166 ft 459 kts 61°
2026-04-14 08:01 55.40930 55.31001 35161 ft 459 kts 62°
2026-04-14 08:01 55.43757 55.41040 35166 ft 460 kts 62°
2026-04-14 08:02 55.46559 55.51112 35164 ft 459 kts 62°
2026-04-14 08:02 55.49363 55.61189 35166 ft 459 kts 62°
2026-04-14 08:03 55.52166 55.71258 35163 ft 459 kts 62°
2026-04-14 08:03 55.54997 55.81386 35172 ft 461 kts 62°
2026-04-14 08:04 55.57808 55.91417 35170 ft 460 kts 62°
2026-04-14 08:04 55.60659 56.01585 35173 ft 462 kts 62°
2026-04-14 08:05 55.63515 56.11721 35174 ft 463 kts 61°
2026-04-14 08:05 55.66367 56.21825 35169 ft 463 kts 61°
2026-04-14 08:06 55.69257 56.32020 35169 ft 462 kts 61°
2026-04-14 08:06 55.72140 56.42150 35170 ft 462 kts 60°
2026-04-14 08:07 55.75029 56.52287 35171 ft 463 kts 60°
2026-04-14 08:07 55.77922 56.62413 35174 ft 463 kts 60°
2026-04-14 08:08 55.80838 56.72591 35169 ft 463 kts 60°
2026-04-14 08:08 55.83694 56.82833 35169 ft 465 kts 62°
2026-04-14 08:09 55.86460 56.93138 35169 ft 465 kts 62°
2026-04-14 08:09 55.89260 57.03532 35173 ft 467 kts 62°
2026-04-14 08:10 55.92063 57.13925 35179 ft 468 kts 62°
2026-04-14 08:10 55.94877 57.24333 35197 ft 466 kts 61°
2026-04-14 08:11 55.97670 57.34688 35193 ft 467 kts 61°
2026-04-14 08:11 56.00418 57.45135 35195 ft 467 kts 61°
2026-04-14 08:12 56.03164 57.55622 35192 ft 467 kts 61°
2026-04-14 08:12 56.05899 57.66054 35187 ft 468 kts 62°
2026-04-14 08:13 56.08684 57.76622 35188 ft 469 kts 62°
2026-04-14 08:13 56.11451 57.87087 35194 ft 469 kts 62°
2026-04-14 08:14 56.14219 57.97645 35192 ft 470 kts 62°
2026-04-14 08:14 56.16922 58.08232 35196 ft 470 kts 61°
2026-04-14 08:15 56.19626 58.18854 35185 ft 471 kts 62°
2026-04-14 08:15 56.22349 58.29518 35193 ft 473 kts 61°
2026-04-14 08:16 56.25103 58.40279 35196 ft 474 kts 61°
2026-04-14 08:16 56.27841 58.50934 35198 ft 474 kts 61°
2026-04-14 08:17 56.30577 58.61724 35194 ft 475 kts 61°
2026-04-14 08:17 56.33275 58.72565 35182 ft 475 kts 62°
2026-04-14 08:18 56.35956 58.83353 35185 ft 476 kts 62°
2026-04-14 08:18 56.38661 58.94187 35190 ft 477 kts 61°
2026-04-14 08:19 56.41394 59.05105 35187 ft 478 kts 61°
2026-04-14 08:19 56.44146 59.15957 35185 ft 477 kts 60°
2026-04-14 08:20 56.46907 59.26733 35184 ft 477 kts 60°
2026-04-14 08:20 56.49659 59.37565 35186 ft 476 kts 60°
2026-04-14 08:21 56.52426 59.48462 35179 ft 478 kts 60°
2026-04-14 08:21 56.55187 59.59325 35172 ft 477 kts 59°
2026-04-14 08:22 56.57974 59.70220 35165 ft 480 kts 60°
2026-04-14 08:22 56.60785 59.81192 35167 ft 479 kts 60°
2026-04-14 08:23 56.63595 59.92119 35163 ft 480 kts 59°
2026-04-14 08:23 56.66384 60.03069 35166 ft 481 kts 60°
2026-04-14 08:24 56.69166 60.14120 35173 ft 482 kts 59°
2026-04-14 08:24 56.71940 60.25126 35175 ft 481 kts 59°
2026-04-14 08:25 56.74675 60.36202 35185 ft 481 kts 60°
2026-04-14 08:25 56.77345 60.47288 35182 ft 481 kts 60°
2026-04-14 08:26 56.80030 60.58415 35198 ft 482 kts 60°
2026-04-14 08:26 56.82738 60.69615 35193 ft 482 kts 60°
2026-04-14 08:27 56.85439 60.80724 35192 ft 485 kts 60°
2026-04-14 08:27 56.88707 60.91172 35179 ft 463 kts 40°
2026-04-14 08:28 56.93335 60.99156 35185 ft 454 kts 30°
2026-04-14 08:28 56.98357 61.05700 35198 ft 444 kts 24°
2026-04-14 08:29 57.03557 61.11758 35194 ft 439 kts 22°
2026-04-14 08:29 57.08740 61.17576 35189 ft 440 kts 21°
2026-04-14 08:30 57.13967 61.23418 35186 ft 441 kts 21°
2026-04-14 08:30 57.19195 61.29229 35191 ft 440 kts 21°
2026-04-14 08:31 57.24421 61.35049 35191 ft 439 kts 21°
2026-04-14 08:31 57.32193 61.43729 35189 ft 437 kts 21°
2026-04-14 08:32 57.37345 61.49574 35196 ft 437 kts 21°
2026-04-14 08:32 57.42559 61.55497 35188 ft 439 kts 21°
2026-04-14 08:33 57.47746 61.61405 35179 ft 437 kts 21°
2026-04-14 08:33 57.52909 61.67287 35178 ft 436 kts 22°
2026-04-14 08:34 57.58042 61.73163 35181 ft 439 kts 22°
2026-04-14 08:34 57.63208 61.79156 35176 ft 444 kts 26°
2026-04-14 08:35 57.67791 61.87090 35205 ft 454 kts 36°
2026-04-14 08:35 57.72200 61.95524 35182 ft 456 kts 37°
2026-04-14 08:36 57.76598 62.04001 35158 ft 454 kts 36°
2026-04-14 08:36 57.80965 62.12426 35184 ft 452 kts 36°
2026-04-14 08:37 57.85361 62.20875 35186 ft 455 kts 36°
2026-04-14 08:37 57.89752 62.29319 35182 ft 455 kts 36°
2026-04-14 08:38 57.94160 62.37785 35189 ft 453 kts 36°
2026-04-14 08:38 57.98545 62.46205 35191 ft 452 kts 36°
2026-04-14 08:39 58.02951 62.54638 35163 ft 452 kts 36°
2026-04-14 08:39 58.07347 62.63020 35170 ft 453 kts 36°
2026-04-14 08:40 58.11745 62.71447 35180 ft 452 kts 37°
2026-04-14 08:40 58.16156 62.79846 35206 ft 452 kts 37°
2026-04-14 08:41 58.20577 62.88274 35154 ft 452 kts 37°
2026-04-14 08:41 58.24981 62.96670 35191 ft 452 kts 37°
2026-04-14 08:42 58.29447 63.04962 35188 ft 450 kts 36°
2026-04-14 08:42 58.33926 63.13277 35179 ft 449 kts 36°
2026-04-14 08:43 58.38342 63.21527 35151 ft 447 kts 37°
2026-04-14 08:43 58.42736 63.29748 35186 ft 445 kts 37°
2026-04-14 08:44 58.47134 63.38026 35160 ft 444 kts 37°
2026-04-14 08:44 58.51507 63.46280 35177 ft 443 kts 37°
2026-04-14 08:45 58.55849 63.54527 35182 ft 442 kts 37°
2026-04-14 08:45 58.60185 63.62802 35176 ft 441 kts 37°
2026-04-14 08:46 58.64522 63.71130 35170 ft 443 kts 39°
2026-04-14 08:46 58.68840 63.79467 35182 ft 443 kts 39°
2026-04-14 08:47 58.73145 63.87914 35179 ft 442 kts 40°
2026-04-14 08:47 58.77360 63.96487 35181 ft 442 kts 40°
2026-04-14 08:48 58.81530 64.05094 35181 ft 442 kts 41°
2026-04-14 08:48 58.85708 64.13755 35180 ft 442 kts 41°
2026-04-14 08:49 58.89882 64.22395 35188 ft 441 kts 41°
2026-04-14 08:49 58.94045 64.31021 35185 ft 440 kts 41°
2026-04-14 08:50 58.98195 64.39603 35188 ft 440 kts 41°
2026-04-14 08:50 59.02374 64.48233 35186 ft 440 kts 41°
2026-04-14 08:51 59.06555 64.56874 35185 ft 439 kts 40°
2026-04-14 08:51 59.10720 64.65465 35194 ft 438 kts 41°
2026-04-14 08:52 59.14890 64.74033 35196 ft 439 kts 41°
2026-04-14 08:52 59.19098 64.82672 35194 ft 440 kts 41°
2026-04-14 08:53 59.23301 64.91293 35198 ft 440 kts 41°
2026-04-14 08:53 59.27488 64.99873 35194 ft 440 kts 40°
2026-04-14 08:54 59.31702 65.08498 35195 ft 439 kts 40°
2026-04-14 08:54 59.35915 65.17110 35194 ft 438 kts 40°
2026-04-14 08:55 59.40111 65.25664 35193 ft 439 kts 40°
2026-04-14 08:55 59.44333 65.34264 35191 ft 440 kts 40°
2026-04-14 08:56 59.48478 65.43062 35194 ft 441 kts 41°
2026-04-14 08:56 59.52576 65.51923 35195 ft 440 kts 41°
2026-04-14 08:57 59.56679 65.60803 35196 ft 441 kts 41°
2026-04-14 08:57 59.60819 65.69737 35191 ft 441 kts 42°
2026-04-14 08:58 59.64957 65.78671 35193 ft 442 kts 42°
2026-04-14 08:58 59.69089 65.87575 35191 ft 442 kts 41°
2026-04-14 08:59 59.73201 65.96487 35200 ft 442 kts 43°
2026-04-14 08:59 59.77204 66.05706 35189 ft 442 kts 43°
2026-04-14 09:00 59.81183 66.14912 35195 ft 442 kts 43°
2026-04-14 09:00 59.85172 66.24129 35201 ft 442 kts 43°
2026-04-14 09:01 59.89165 66.33339 35193 ft 441 kts 43°
2026-04-14 09:01 59.93171 66.42562 35189 ft 441 kts 43°
2026-04-14 09:02 59.97188 66.51791 35191 ft 442 kts 43°
2026-04-14 09:02 60.01186 66.60973 35192 ft 443 kts 43°
2026-04-14 09:03 60.05201 66.70316 35185 ft 444 kts 45°
2026-04-14 09:03 60.09136 66.79857 35186 ft 445 kts 45°
2026-04-14 09:04 60.13019 66.89389 35195 ft 446 kts 45°
2026-04-14 09:04 60.16936 66.99029 35191 ft 446 kts 45°
2026-04-14 09:05 60.20830 67.08614 35206 ft 445 kts 45°
2026-04-14 09:05 60.24742 67.18218 35194 ft 445 kts 45°
2026-04-14 09:06 60.28653 67.27821 35183 ft 445 kts 44°
2026-04-14 09:06 60.32557 67.37379 35187 ft 445 kts 44°
2026-04-14 09:07 60.36475 67.46948 35160 ft 443 kts 44°
2026-04-14 09:07 60.40390 67.56503 35159 ft 440 kts 44°
2026-04-14 09:08 60.44277 67.65964 35168 ft 443 kts 44°
2026-04-14 09:08 60.48248 67.75493 35169 ft 443 kts 44°
2026-04-14 09:09 60.52205 67.84944 35162 ft 444 kts 44°
2026-04-14 09:09 60.56190 67.94495 35172 ft 445 kts 44°
2026-04-14 09:10 60.60142 68.04012 35161 ft 443 kts 44°
2026-04-14 09:10 60.64086 68.13569 35162 ft 443 kts 44°
2026-04-14 09:11 60.68050 68.23202 35164 ft 443 kts 44°
2026-04-14 09:11 60.71970 68.32785 35175 ft 443 kts 44°
2026-04-14 09:12 60.75899 68.42449 35180 ft 443 kts 44°
2026-04-14 09:12 60.79745 68.52220 35164 ft 444 kts 45°
2026-04-14 09:13 60.83581 68.62082 35166 ft 444 kts 45°
2026-04-14 09:13 60.87404 68.71928 35154 ft 443 kts 46°
2026-04-14 09:14 60.91240 68.81781 35151 ft 444 kts 46°
2026-04-14 09:14 60.95068 68.91602 35137 ft 443 kts 45°
2026-04-14 09:15 60.98934 69.01505 35134 ft 444 kts 45°
2026-04-14 09:15 61.02787 69.11339 35134 ft 443 kts 44°
2026-04-14 09:16 61.07156 69.19949 35145 ft 437 kts 36°
2026-04-14 09:16 61.11645 69.28308 35135 ft 437 kts 36°
2026-04-14 09:17 61.16138 69.36734 35136 ft 436 kts 36°
2026-04-14 09:17 61.20613 69.45147 35143 ft 436 kts 36°
2026-04-14 09:18 61.25086 69.53562 35147 ft 436 kts 36°
2026-04-14 09:18 61.29562 69.61969 35150 ft 436 kts 36°
2026-04-14 09:19 61.34036 69.70369 35157 ft 436 kts 37°
2026-04-14 09:19 61.38486 69.78727 35142 ft 435 kts 37°
2026-04-14 09:20 61.42918 69.87233 35158 ft 434 kts 37°
2026-04-14 09:20 61.47327 69.95792 35131 ft 434 kts 37°
2026-04-14 09:21 61.51741 70.04386 35142 ft 435 kts 37°
2026-04-14 09:21 61.56145 70.12966 35144 ft 434 kts 37°
2026-04-14 09:22 61.60554 70.21550 35145 ft 434 kts 37°
2026-04-14 09:22 61.64952 70.30096 35134 ft 433 kts 37°
2026-04-14 09:23 61.69367 70.38667 35128 ft 432 kts 37°
2026-04-14 09:23 61.73773 70.47210 35121 ft 433 kts 37°
2026-04-14 09:24 61.78174 70.55729 35144 ft 433 kts 37°
2026-04-14 09:24 61.82596 70.64279 35141 ft 431 kts 37°
2026-04-14 09:25 61.86993 70.72781 35136 ft 432 kts 37°
2026-04-14 09:25 61.91425 70.81335 35145 ft 432 kts 37°
2026-04-14 09:26 61.95853 70.89871 35130 ft 431 kts 37°
2026-04-14 09:26 62.00265 70.98367 35125 ft 431 kts 37°
2026-04-14 09:27 62.04596 71.07121 35125 ft 432 kts 38°
2026-04-14 09:27 62.08910 71.15937 35126 ft 430 kts 38°
2026-04-14 09:28 62.13202 71.24723 35136 ft 429 kts 38°
2026-04-14 09:28 62.17491 71.33498 35133 ft 429 kts 38°
2026-04-14 09:29 62.21792 71.42275 35137 ft 429 kts 38°
2026-04-14 09:29 62.26078 71.51024 35131 ft 428 kts 38°
2026-04-14 09:30 62.30367 71.59766 35135 ft 427 kts 38°
2026-04-14 09:30 62.34681 71.68545 35143 ft 427 kts 38°
2026-04-14 09:31 62.38995 71.77312 35136 ft 427 kts 38°
2026-04-14 09:31 62.40983 71.82056 35103 ft 436 kts 50°
2026-04-14 09:31 62.42513 71.87633 35164 ft 438 kts 56°
2026-04-14 09:32 62.45297 71.99381 35127 ft 440 kts 58°
2026-04-14 09:33 62.49251 72.17136 35129 ft 438 kts 59°
2026-04-14 09:33 62.51858 72.28935 35114 ft 433 kts 58°
2026-04-14 09:33 62.53136 72.34718 34555 ft 430 kts 58°
2026-04-14 09:34 62.54437 72.40594 33786 ft 433 kts 58°
2026-04-14 09:34 62.55722 72.46392 33219 ft 429 kts 58°
2026-04-14 09:34 62.56993 72.52110 32636 ft 423 kts 58°
2026-04-14 09:34 62.58256 72.57785 32010 ft 419 kts 57°
2026-04-14 09:35 62.59520 72.63435 31351 ft 416 kts 57°
2026-04-14 09:35 62.60767 72.69003 30720 ft 412 kts 58°
2026-04-14 09:35 62.62012 72.74558 30089 ft 408 kts 58°
2026-04-14 09:35 62.63243 72.80044 29524 ft 402 kts 58°
2026-04-14 09:36 62.64446 72.85406 28945 ft 398 kts 57°
2026-04-14 09:36 62.65641 72.90722 28359 ft 393 kts 57°
2026-04-14 09:36 62.66840 72.96025 27771 ft 389 kts 57°
2026-04-14 09:36 62.68024 73.01258 27208 ft 384 kts 57°
2026-04-14 09:37 62.69181 73.06380 26649 ft 379 kts 57°
2026-04-14 09:37 62.70335 73.11458 26068 ft 375 kts 57°
2026-04-14 09:37 62.71485 73.16518 25470 ft 372 kts 57°
2026-04-14 09:37 62.72627 73.21534 24949 ft 368 kts 56°
2026-04-14 09:38 62.73740 73.26421 24395 ft 364 kts 56°
2026-04-14 09:38 62.74864 73.31344 23802 ft 361 kts 56°
2026-04-14 09:38 62.75979 73.36211 23227 ft 358 kts 56°
2026-04-14 09:38 62.77089 73.41033 22207 ft 368 kts 56°
2026-04-14 09:39 62.78239 73.45998 21273 ft 372 kts 57°
2026-04-14 09:39 62.79387 73.50998 20593 ft 367 kts 57°
2026-04-14 09:39 62.80518 73.55929 19891 ft 364 kts 57°
2026-04-14 09:39 62.81654 73.60854 19202 ft 361 kts 57°
2026-04-14 09:40 62.82767 73.65688 18532 ft 357 kts 58°
2026-04-14 09:40 62.83880 73.70503 17838 ft 353 kts 58°
2026-04-14 09:40 62.84969 73.75206 17191 ft 349 kts 58°
2026-04-14 09:40 62.86060 73.79910 16532 ft 346 kts 58°
2026-04-14 09:41 62.87123 73.84514 15612 ft 335 kts 58°
2026-04-14 09:41 62.88150 73.88937 13992 ft 333 kts 58°
2026-04-14 09:41 62.89175 73.93334 12537 ft 326 kts 58°
2026-04-14 09:41 62.90180 73.97665 11103 ft 318 kts 58°
2026-04-14 09:42 62.91143 74.01812 10108 ft 298 kts 58°
2026-04-14 09:42 62.92012 74.05578 10018 ft 259 kts 57°
2026-04-14 09:42 62.92808 74.09001 9539 ft 245 kts 57°
2026-04-14 09:42 62.93576 74.12260 8879 ft 241 kts 57°
2026-04-14 09:43 62.94332 74.15460 8215 ft 237 kts 57°
2026-04-14 09:43 62.95091 74.18666 7696 ft 237 kts 57°
2026-04-14 09:43 62.95835 74.21822 7521 ft 232 kts 57°
2026-04-14 09:43 62.96567 74.24934 7284 ft 231 kts 57°
2026-04-14 09:44 62.97306 74.28073 7035 ft 229 kts 57°
2026-04-14 09:44 62.98030 74.31145 6797 ft 228 kts 57°
2026-04-14 09:44 62.98755 74.34219 6551 ft 227 kts 57°
2026-04-14 09:44 62.99313 74.37489 6254 ft 234 kts 77°
2026-04-14 09:45 62.99238 74.41109 6019 ft 238 kts 92°
2026-04-14 09:45 62.99019 74.44691 5792 ft 237 kts 93°
2026-04-14 09:45 62.98784 74.48248 5560 ft 236 kts 93°
2026-04-14 09:45 62.98553 74.51790 5338 ft 234 kts 92°
2026-04-14 09:46 62.98327 74.55302 5127 ft 232 kts 92°
2026-04-14 09:46 62.98102 74.58817 4907 ft 231 kts 92°
2026-04-14 09:46 62.97882 74.62278 4699 ft 229 kts 92°
2026-04-14 09:46 62.97661 74.65748 4481 ft 228 kts 94°
2026-04-14 09:47 62.97442 74.69204 4245 ft 228 kts 94°
2026-04-14 09:47 62.97224 74.72598 4067 ft 223 kts 94°
2026-04-14 09:47 62.97012 74.75838 3967 ft 207 kts 93°
2026-04-14 09:47 62.96818 74.78786 3833 ft 197 kts 93°
2026-04-14 09:48 62.96629 74.81679 3624 ft 185 kts 93°
2026-04-14 09:48 62.96448 74.84489 3261 ft 195 kts 92°
2026-04-14 09:48 62.96262 74.87389 3025 ft 188 kts 93°
2026-04-14 09:48 62.96077 74.90156 2805 ft 182 kts 93°
2026-04-14 09:49 62.95900 74.92873 2831 ft 179 kts 92°
2026-04-14 09:49 62.95723 74.95596 2821 ft 181 kts 92°
2026-04-14 09:49 62.95549 74.98309 2819 ft 179 kts 91°
2026-04-14 09:49 62.95513 75.00994 2797 ft 174 kts 72°
2026-04-14 09:50 62.96030 75.03329 2688 ft 169 kts 46°
2026-04-14 09:50 62.96962 75.04793 2554 ft 166 kts 26°
2026-04-14 09:50 62.97967 75.05960 2453 ft 162 kts 25°
2026-04-14 09:50 62.98966 75.07024 2311 ft 161 kts 24°
2026-04-14 09:51 62.99980 75.08090 2209 ft 160 kts 24°
2026-04-14 09:51 63.00981 75.09125 2233 ft 158 kts 23°
2026-04-14 09:51 63.01989 75.10157 2219 ft 160 kts 23°
2026-04-14 09:51 63.03011 75.11208 2204 ft 162 kts 22°
2026-04-14 09:52 63.04027 75.12241 2205 ft 160 kts 23°
2026-04-14 09:52 63.05032 75.13273 2216 ft 162 kts 23°
2026-04-14 09:52 63.06049 75.14283 2205 ft 161 kts 24°
2026-04-14 09:52 63.07073 75.15337 2231 ft 161 kts 23°
2026-04-14 09:53 63.08088 75.16366 2215 ft 159 kts 23°
2026-04-14 09:53 63.09053 75.17352 2177 ft 147 kts 22°
2026-04-14 09:53 63.09958 75.18277 2175 ft 141 kts 22°
2026-04-14 09:53 63.10854 75.19191 1960 ft 136 kts 23°
2026-04-14 09:54 63.11662 75.20011 1748 ft 120 kts 22°
2026-04-14 09:54 63.12362 75.20715 1568 ft 107 kts 21°
2026-04-14 09:54 63.13042 75.21440 1472 ft 110 kts 23°
2026-04-14 09:54 63.13732 75.22118 1329 ft 109 kts 22°
2026-04-14 09:55 63.14442 75.22849 1159 ft 113 kts 21°
2026-04-14 09:55 63.15140 75.23567 998 ft 114 kts 22°
2026-04-14 09:55 63.15862 75.24298 851 ft 116 kts 22°
2026-04-14 09:55 63.16576 75.25041 690 ft 113 kts 22°
2026-04-14 09:56 63.17282 75.25769 487 ft 114 kts 23°
2026-04-14 09:56 63.17913 75.26408 459 ft 65 kts 25°
2026-04-14 09:56 63.18131 75.26629 459 ft 15 kts 22°
2026-04-14 09:56 63.18221 75.26716 459 ft 13 kts 24°
2026-04-14 09:57 63.18300 75.26799 459 ft 11 kts 26°
2026-04-14 09:57 63.18338 75.26916 459 ft 9 kts 101°
2026-04-14 09:57 63.18316 75.27039 459 ft 7 kts 115°
2026-04-14 09:57 63.18295 75.27141 459 ft 6 kts 114°
2026-04-14 09:58 63.18273 75.27218 459 ft 5 kts 142°
2026-04-14 09:58 63.18241 75.27227 459 ft 4 kts 189°
2026-04-14 09:58 63.18224 75.27237 459 ft 1 kts 146°
2026-04-14 09:58 63.18219 75.27251 459 ft 1 kts 115°
2026-04-14 09:59 63.18216 75.27263 459 ft 0 kts 112°